TimeCDT,TemperatureF,Dew PointF,Humidity,Sea Level PressureIn,VisibilityMPH,Wind Direction,Wind SpeedMPH,Gust SpeedMPH,PrecipitationIn,Events,Conditions,WindDirDegrees,DateUTC
12:53 AM,66.0,59.0,78,30.06,10.0,Calm,Calm,-,N/A,,Overcast,0,2013-08-16 05:53:00
1:53 AM,66.0,57.0,73,30.06,10.0,NNE,3.5,-,N/A,,Overcast,30,2013-08-16 06:53:00
2:53 AM,66.0,57.0,73,30.05,10.0,Calm,Calm,-,N/A,,Overcast,0,2013-08-16 07:53:00
3:53 AM,64.0,57.9,80,30.05,10.0,NE,3.5,-,N/A,,Scattered Clouds,50,2013-08-16 08:53:00
4:53 AM,62.1,55.9,80,30.06,10.0,ENE,3.5,-,N/A,,Partly Cloudy,60,2013-08-16 09:53:00
5:53 AM,61.0,57.0,87,30.06,10.0,Calm,Calm,-,N/A,,Clear,0,2013-08-16 10:53:00
6:53 AM,63.0,57.9,84,30.08,10.0,NE,3.5,-,N/A,,Overcast,40,2013-08-16 11:53:00
7:53 AM,64.0,57.9,80,30.09,10.0,NE,4.6,-,N/A,,Mostly Cloudy,40,2013-08-16 12:53:00
8:53 AM,66.9,60.1,79,30.10,10.0,Calm,Calm,-,N/A,,Overcast,0,2013-08-16 13:53:00
9:12 AM,66.2,60.8,83,30.11,10.0,Calm,Calm,-,N/A,,Overcast,0,2013-08-16 14:12:00
9:26 AM,68.0,60.8,78,30.11,10.0,Calm,Calm,-,N/A,,Overcast,0,2013-08-16 14:26:00
9:53 AM,71.1,62.1,73,30.09,10.0,Calm,Calm,-,N/A,,Partly Cloudy,0,2013-08-16 14:53:00
10:53 AM,73.0,63.0,71,30.09,10.0,Calm,Calm,-,N/A,,Overcast,0,2013-08-16 15:53:00
11:32 AM,73.4,62.6,69,30.11,10.0,Calm,Calm,-,N/A,,Overcast,0,2013-08-16 16:32:00
11:46 AM,73.4,62.6,69,30.11,10.0,Calm,Calm,-,N/A,,Overcast,0,2013-08-16 16:46:00
11:53 AM,73.9,63.0,68,30.10,10.0,Calm,Calm,-,N/A,,Overcast,0,2013-08-16 16:53:00
12:53 PM,75.9,63.0,64,30.09,10.0,Calm,Calm,-,N/A,,Overcast,0,2013-08-16 17:53:00
1:53 PM,77.0,64.0,64,30.08,10.0,East,3.5,-,N/A,,Overcast,90,2013-08-16 18:53:00
2:53 PM,78.1,66.0,66,30.06,10.0,NE,10.4,-,N/A,,Overcast,50,2013-08-16 19:53:00
3:53 PM,77.0,64.9,66,30.06,10.0,ENE,5.8,-,N/A,,Scattered Clouds,70,2013-08-16 20:53:00
4:53 PM,77.0,64.9,66,30.07,10.0,Calm,Calm,-,N/A,,Partly Cloudy,0,2013-08-16 21:53:00
5:53 PM,75.9,64.9,69,30.06,10.0,East,3.5,-,N/A,,Clear,80,2013-08-16 22:53:00
6:53 PM,75.0,64.9,71,30.06,10.0,NE,5.8,-,N/A,,Mostly Cloudy,40,2013-08-16 23:53:00
7:53 PM,73.9,64.9,73,30.07,10.0,East,3.5,-,N/A,,Overcast,100,2013-08-17 00:53:00
8:53 PM,73.9,66.0,76,30.09,10.0,Calm,Calm,-,N/A,,Overcast,0,2013-08-17 01:53:00
9:53 PM,72.0,66.9,84,30.09,10.0,NNE,3.5,-,N/A,,Overcast,20,2013-08-17 02:53:00
10:53 PM,71.1,66.9,87,30.09,10.0,ENE,3.5,-,N/A,,Overcast,60,2013-08-17 03:53:00
11:53 PM,71.1,66.0,84,30.09,10.0,NE,3.5,-,N/A,,Mostly Cloudy,50,2013-08-17 04:53:00